Montana Department of Transportation

Main Content

Accidents and Incidents Report

Hourly Weather Roundup

ASUS45 KTFX 181310

RWRMT 

MONTANA REGIONAL WEATHER ROUNDUP

NATIONAL WEATHER SERVICE GREAT FALLS MT

600 AM MST TUE DEC 18 2018



NOTE: "FAIR" INDICATES FEW OR NO CLOUDS BELOW 12000 FEET WITH NO

SIGNIFICANT WEATHER AND/OR OBSTRUCTIONS TO VISIBILITY.



MTZ001.007-043-181400-

WEST OF THE DIVIDE

  

CITY           SKY/WX    TMP DP  RH WIND       PRES   REMARKS

KALISPELL      LGT RAIN  39  32  76 S9        29.79F                  

MISSOULA       CLOUDY    28  26  92 N5        29.88F FOG              

BUTTE          FAIR      24  17  74 CALM      29.91F                  

MULLAN PASS    SNOW      28  26  92 S9        29.75F VSB 1/4 WCI  19  

ANACONDA         N/A     39  18  41 SW7G18    29.88F                  

DEER LODGE       N/A     32  23  69 W6        29.89F WCI  26          

RONAN            N/A     43  30  61 S16G23    29.80F                  

--------------------------------



MTZ008-052.055-181400-

SOUTHWEST MONTANA

  

CITY           SKY/WX    TMP DP  RH WIND       PRES   REMARKS

BOZEMAN        FAIR      25  20  81 SE7       29.91F WCI  17          

DILLON         FAIR      28  23  81 W10       29.96F WCI  19          

ENNIS          PTCLDY    36  25  64 S22G30    30.00F WCI  24          

W YELLOWSTONE  CLOUDY    32  28  86 SW10      30.04F WCI  24          

THREE FORKS      N/A     41  25  53 S21       29.89F                  

TWIN BRIDGES     N/A     28  18  66 CALM      29.96F                  

--------------------------------



MTZ009-010-012-014-046-048-049-054-181400-

EAST SLOPES AND CENTRAL MONTANA

  

CITY           SKY/WX    TMP DP  RH WIND       PRES   REMARKS

CUT BANK       FAIR      34  21  59 SW7       29.65F WCI  28          

GREAT FALLS    FAIR      42  20  41 SW22G33   29.71F                  

MALMSTROM AFB  FAIR      40  19  44 S5        29.74F                  

HELENA         FAIR      27  24  89 CALM      29.84F                  

AUGUSTA        MOCLDY    39  20  45 S8        29.70F                  

BOWMANS CRNR   FAIR      38  19  47 S26G37    29.70F WCI  26          

CHOTEAU          N/A     43  19  39 SW15G24   29.67F                  

FAIRFIELD      FAIR      38  21  49 S22       29.67F WCI  28          

POWER          FAIR      38  20  48 S15       29.71F WCI  30          

RAYNESFORD     FAIR      42  21  41 S17G23    29.74F                  

ULM            FAIR      41  18  39 SW10      29.76F                  

WHITE SULPHUR    N/A     34  25  69 SE14      29.86R WCI  24          

--------------------------------



MTZ011-013-016-021-045-047-050-051-181400-

NORTH CENTRAL MONTANA

  

CITY           SKY/WX    TMP DP  RH WIND       PRES   REMARKS

HAVRE          FAIR      31  26  82 SW3       29.69F                  

LEWISTOWN      FAIR      40  24  53 SW8       29.78R                  

N BAR RANCH    FAIR      43  21  42 W9G16     29.80F                  

CHINOOK          N/A     27  25  93 E7        29.71F WCI  19          

GEYSER         MOCLDY    38  22  50 NW5       29.75F                  

JUDITH GAP     MOCLDY    38  25  57 S16       29.79F WCI  30          

ROY            FAIR      42  23  47 SW13      29.75F                  

STANFORD       FAIR      42  19  39 SW3       29.75R                  

WINIFRED         N/A     39  25  57 SW13      29.74F WCI  32          

--------------------------------



MTZ017.020-022.027-061-062-181400-

NORTHEAST MONTANA

  

CITY           SKY/WX    TMP DP  RH WIND       PRES   REMARKS

GLASGOW        FAIR      29  25  85 E8        29.76F WCI  21          

GLENDIVE       FAIR      25  22  88 S5        29.85S                  

JORDAN           N/A     24  20  84 CALM      29.80F                  

MALTA          CLEAR     25  23  93 NE5       29.74F                  

SIDNEY         FAIR      22  21  96 S9        29.84S WCI  12          

WOLF POINT     FAIR      20  18  92 CALM      29.81F                  

POPLAR           N/A     27  25  93 CALM      29.81F                  

--------------------------------



MTZ028.42-056.058-181400-

SOUTHCENTRAL AND SOUTHEAST MONTANA

  

CITY           SKY/WX    TMP DP  RH WIND       PRES   REMARKS

BAKER          FAIR      31  24  75 W6        29.86F WCI  25          

BILLINGS       MOCLDY    33  23  66 SW13      29.87S WCI  24          

LIVINGSTON     FAIR      43  24  47 SW24G37   29.84F                  

MILES CITY     FAIR      25  23  92 S9        29.86F WCI  15          

BIG TIMBER     CLEAR     41  21  45 W23G31    29.85S                  

FORSYTH          N/A     30  21  69 CALM      29.86F                  

HARLOWTON      CLOUDY    34  24  65 CALM      29.81F                  

ROUNDUP          N/A     33  21  61 SW10      29.76F WCI  25          

--------------------------------



REGIONAL REPORTS...DAKOTAS

  

CITY           SKY/WX    TMP DP  RH WIND       PRES   REMARKS

WILLISTON      FAIR      27  22  81 CALM      29.82R                  

MINOT          FAIR      33  26  75 SW10      29.76S WCI  25          

DICKINSON      FAIR      29  22  75 W5        29.82S                  

BEACH          FAIR      28  25  86 CALM      29.85S                  

CROSBY         FAIR      28  28 100 S12       29.77F WCI  18          

TIOGA          FAIR      23  23 100 SW8       29.81S WCI  14          

WATFORD CITY   FAIR      25  23  93 SW7       29.82S WCI  17          

BISMARCK       FAIR      22  20  92 CALM      29.83F                  

GRAND FORKS    FAIR      15  12  88 S7        29.78F WCI   5          

FARGO          FAIR      24  21  88 S8        29.81F WCI  15          

BUFFALO SD       N/A     32  21  64 W6        29.84S WCI  26          

RAPID CITY     FAIR      31  19  61 NW3       29.88R                  

--------------------------------



REGIONAL REPORTS...WYOMING/IDAHO/WASHINGTON

  

CITY           SKY/WX    TMP DP  RH WIND       PRES   REMARKS

GILLETTE       FAIR      29  21  72 CALM      29.90S                  

SHERIDAN       FAIR      26  19  74 CALM      29.89S                  

BUFFALO WY     FAIR      37  20  50 S6        29.89F                  

CODY           FAIR      44  18  35 W24G33    29.94S                  

YELLOWSTONE LA   N/A     27  22  81 CALM      30.08F                  

IDAHO FALLS    FAIR      30  27  88 CALM      30.12F                  

SALMON         CLOUDY    18  16  92 SE3       30.04S                  

BOISE          CLOUDY    41  35  79 SE8       30.09F                  

SPOKANE        LGT RAIN  40  37  89 S14G26    29.72F                  

--------------------------------



REGIONAL REPORTS...ALBERTA

  

CITY           SKY/WX    TMP DP  RH WIND       PRES   REMARKS

CALGARY        PTCLDY    36  18  48 SW9       29.44F WCI  29          

CARDSTON         N/A     43  25  49 W6          N/A                   

EDMONTON       MOCLDY    27  16  63 W8        29.39S WCI  18          

FORT MCMURRAY  CLOUDY     9   5  85 E3        29.39F                  

HIGH LEVEL     FOG       12  10  92 E3        29.29F VSB 3/8          

LETHBRIDGE     MOCLDY    41  27  56 W13       29.58S                  

LLOYDMINSTER   MOCLDY    23  18  80 S16       29.43F WCI  10          

MEDICINE HAT   CLOUDY    39  25  56 SW16      29.57F WCI  30          

ONEFOUR          N/A     30  25  80 S8          N/A  WCI  23          

PEACE RIVER    CLOUDY    21  19  93 W8        29.32F WCI  12          

PINCHER CREEK  MOCLDY    37  28  70 W29G44    29.54S WCI  25          

WATERTON GATE    N/A     36  30  80 SW39G52     N/A  WCI  21          

--------------------------------



REGIONAL REPORTS...SASKATCHEWAN

  

CITY           SKY/WX    TMP DP  RH WIND       PRES   REMARKS

CYPRESS HILLS    N/A     27  19  74 SW8         N/A  WCI  18          

ESTEVAN        CLEAR     25  23  93 SW9       29.75S WCI  15          

PRINCE ALBERT  CLOUDY     3   0  85 VRB2      29.60F                  

REGINA         MOCLDY    21  19  93 S9        29.68F WCI  11          

ROCKGLEN         N/A     28  23  80 SW7         N/A  WCI  21          

SASKATOON      PTCLDY    23  21  93 S9        29.58F WCI  13          

SWIFT CURRENT  PTCLDY    30  23  74 S14G20    29.61F WCI  20          

--------------------------------